When you browse on this site, cookies collect data to enhance your experience and personalize the content and advertising you see.
Visit our Privacy Policy to learn more. By continuing to use the site, you agree to this use of cookies and data.
  • In France
  • List of Countries
  • For 7 days
  • Water Temperature
  • Satellite Maps
  • Weather Map
  • Weather Widgets
  • user-avatar
    Login

    Hourly Weather Berat

    Today, 16 February, Saturday

    Time Temperature Precipitation Wind Pressure Humidity
    00:00 +3°C° 0 mm 2 mps 752 mmHg 66%
    01:00 +3°C° 0 mm 2 mps 752 mmHg 66%
    02:00 +3°C° 0 mm 2 mps 752 mmHg 66%
    03:00 +3°C° 0 mm 2 mps 752 mmHg 66%
    04:00 +3°C° 0 mm 2 mps 753 mmHg 66%
    05:00 +3°C° 0 mm 2 mps 753 mmHg 66%
    06:00 +3°C° 0 mm 2 mps 753 mmHg 66%
    07:00 +3°C° 0 mm 2 mps 753 mmHg 66%
    08:00 +5°C° 0 mm 2 mps 753 mmHg 58%
    09:00 +7°C° 0 mm 2 mps 753 mmHg 50%
    10:00 +9°C° 0 mm 2 mps 753 mmHg 43%
    11:00 +10°C° 0 mm 2 mps 753 mmHg 40%
    12:00 +12°C° 0 mm 2 mps 753 mmHg 37%
    13:00 +13°C° 0 mm 2 mps 753 mmHg 34%
    14:00 +13°C° 0 mm 2 mps 753 mmHg 37%
    15:00 +13°C° 0 mm 2 mps 753 mmHg 39%
    16:00 +13°C° 0 mm 2 mps 752 mmHg 41%
    17:00 +10°C° 0 mm 2 mps 753 mmHg 46%
    18:00 +9°C° 0 mm 1 mps 753 mmHg 51%
    19:00 +8°C° 0 mm 1 mps 753 mmHg 56%
    20:00 +6°C° 0 mm 2 mps 753 mmHg 57%
    21:00 +6°C° 0 mm 2 mps 753 mmHg 57%
    22:00 +6°C° 0 mm 2 mps 753 mmHg 57%
    23:00 +5°C° 0 mm 2 mps 753 mmHg 57%

    Tomorrow, 17 February, Sunday

    Time Temperature Precipitation Wind Pressure Humidity
    00:00 +5°C° 0 mm 2 mps 753 mmHg 57%
    01:00 +5°C° 0 mm 2 mps 753 mmHg 57%
    02:00 +5°C° 0 mm 2 mps 753 mmHg 56%
    03:00 +5°C° 0 mm 2 mps 753 mmHg 55%
    04:00 +4°C° 0 mm 2 mps 753 mmHg 54%
    05:00 +4°C° 0 mm 2 mps 753 mmHg 53%
    06:00 +5°C° 0 mm 2 mps 753 mmHg 52%
    07:00 +5°C° 0 mm 2 mps 753 mmHg 51%
    08:00 +8°C° 0 mm 1 mps 753 mmHg 45%
    09:00 +10°C° 0 mm 1 mps 753 mmHg 39%
    10:00 +12°C° 0 mm 0 mps 753 mmHg 33%
    11:00 +13°C° 0 mm 1 mps 753 mmHg 33%
    12:00 +14°C° 0 mm 1 mps 752 mmHg 32%
    13:00 +15°C° 0 mm 2 mps 752 mmHg 32%
    14:00 +15°C° 0 mm 2 mps 752 mmHg 36%
    15:00 +14°C° 0 mm 2 mps 751 mmHg 40%
    16:00 +13°C° 0 mm 2 mps 751 mmHg 45%
    17:00 +12°C° 0 mm 1 mps 751 mmHg 50%
    18:00 +10°C° 0 mm 1 mps 751 mmHg 56%
    19:00 +8°C° 0 mm 0 mps 752 mmHg 61%
    20:00 +8°C° 0 mm 0 mps 752 mmHg 60%
    21:00 +8°C° 0 mm 1 mps 752 mmHg 59%
    22:00 +8°C° 0 mm 1 mps 752 mmHg 58%
    23:00 +8°C° 0 mm 1 mps 752 mmHg 57%

    Day after tomorrow, 18 February, Monday

    Time Temperature Precipitation Wind Pressure Humidity
    00:00 +8°C° 0 mm 1 mps 751 mmHg 56%
    01:00 +8°C° 0 mm 1 mps 751 mmHg 55%
    02:00 +8°C° 0 mm 1 mps 751 mmHg 55%
    03:00 +7°C° 0 mm 1 mps 751 mmHg 54%
    04:00 +7°C° 0 mm 1 mps 750 mmHg 53%
    05:00 +7°C° 0 mm 1 mps 751 mmHg 53%
    06:00 +7°C° 0 mm 1 mps 751 mmHg 53%
    07:00 +7°C° 0 mm 1 mps 751 mmHg 53%
    08:00 +9°C° 0 mm 1 mps 751 mmHg 48%
    09:00 +12°C° 0 mm 1 mps 751 mmHg 44%
    10:00 +13°C° 0 mm 0 mps 751 mmHg 40%
    11:00 +14°C° 0 mm 1 mps 751 mmHg 40%
    12:00 +15°C° 0 mm 1 mps 751 mmHg 40%
    13:00 +16°C° 0 mm 2 mps 750 mmHg 40%
    14:00 +15°C° 0 mm 2 mps 750 mmHg 44%
    15:00 +15°C° 0 mm 2 mps 750 mmHg 48%
    16:00 +15°C° 0 mm 2 mps 750 mmHg 52%
    17:00 +13°C° 0 mm 1 mps 750 mmHg 59%
    18:00 +11°C° 0 mm 1 mps 750 mmHg 67%
    19:00 +9°C° 0 mm 0 mps 750 mmHg 75%
    20:00 +9°C° 0 mm 0 mps 750 mmHg 75%
    21:00 +8°C° 0 mm 0 mps 750 mmHg 74%
    22:00 +9°C° 0 mm 1 mps 751 mmHg 74%
    23:00 +9°C° 0 mm 1 mps 751 mmHg 73%

    19 February, Tuesday

    Time Temperature Precipitation Wind Pressure Humidity
    00:00 +9°C° 0 mm 1 mps 751 mmHg 73%
    01:00 +9°C° 0 mm 1 mps 751 mmHg 72%
    02:00 +8°C° 0 mm 1 mps 751 mmHg 72%
    03:00 +8°C° 0 mm 1 mps 751 mmHg 72%
    04:00 +8°C° 0 mm 1 mps 750 mmHg 72%
    05:00 +8°C° 0 mm 1 mps 751 mmHg 72%
    06:00 +8°C° 0 mm 1 mps 751 mmHg 72%
    07:00 +8°C° 0 mm 1 mps 751 mmHg 72%
    08:00 +10°C° 0 mm 1 mps 751 mmHg 65%
    09:00 +12°C° 0 mm 1 mps 751 mmHg 59%
    10:00 +14°C° 0 mm 1 mps 751 mmHg 53%
    11:00 +14°C° 0 mm 1 mps 751 mmHg 51%
    12:00 +15°C° 0 mm 2 mps 751 mmHg 49%
    13:00 +16°C° 0 mm 2 mps 751 mmHg 47%
    14:00 +15°C° 0 mm 2 mps 750 mmHg 50%
    15:00 +15°C° 0 mm 2 mps 750 mmHg 53%
    16:00 +14°C° 0 mm 2 mps 750 mmHg 57%
    17:00 +13°C° 0 mm 1 mps 750 mmHg 64%
    18:00 +11°C° 0 mm 1 mps 750 mmHg 72%
    19:00 +9°C° 0 mm 0 mps 751 mmHg 80%
    20:00 +9°C° 0 mm 0 mps 751 mmHg 81%
    21:00 +8°C° 0 mm 0 mps 751 mmHg 81%
    22:00 +8°C° 0 mm 0 mps 751 mmHg 82%
    23:00 +8°C° 0 mm 0 mps 751 mmHg 82%

    20 February, Wednesday

    Time Temperature Precipitation Wind Pressure Humidity
    00:00 +7°C° 0 mm 0 mps 751 mmHg 83%
    01:00 +7°C° 0 mm 0 mps 751 mmHg 83%
    02:00 +8°C° 0 mm 1 mps 751 mmHg 81%
    03:00 +8°C° 0 mm 1 mps 751 mmHg 80%
    04:00 +7°C° 0 mm 1 mps 751 mmHg 79%
    05:00 +7°C° 0 mm 1 mps 751 mmHg 76%
    06:00 +7°C° 0 mm 1 mps 751 mmHg 74%
    07:00 +7°C° 0 mm 1 mps 751 mmHg 71%
    08:00 +9°C° 0 mm 1 mps 751 mmHg 63%
    09:00 +11°C° 0 mm 1 mps 752 mmHg 55%
    10:00 +13°C° 0 mm 1 mps 752 mmHg 47%
    11:00 +14°C° 0 mm 1 mps 752 mmHg 46%
    12:00 +15°C° 0 mm 2 mps 751 mmHg 46%
    13:00 +15°C° 0 mm 2 mps 751 mmHg 46%
    14:00 +15°C° 0 mm 2 mps 751 mmHg 49%
    15:00 +15°C° 0 mm 2 mps 751 mmHg 53%
    16:00 +14°C° 0 mm 2 mps 751 mmHg 57%
    17:00 +13°C° 0 mm 2 mps 751 mmHg 66%
    18:00 +11°C° 0 mm 1 mps 751 mmHg 75%
    19:00 +10°C° 0 mm 1 mps 751 mmHg 85%
    20:00 +9°C° 0 mm 1 mps 751 mmHg 85%
    21:00 +9°C° 0 mm 1 mps 752 mmHg 86%
    22:00 +9°C° 0 mm 1 mps 752 mmHg 87%
    23:00 +8°C° 0 mm 1 mps 752 mmHg 86%

    21 February, Thursday

    Time Temperature Precipitation Wind Pressure Humidity
    00:00 +8°C° 0 mm 1 mps 752 mmHg 85%
    01:00 +8°C° 0 mm 1 mps 752 mmHg 84%
    02:00 +8°C° 0 mm 1 mps 752 mmHg 83%
    03:00 +7°C° 0 mm 1 mps 752 mmHg 82%
    04:00 +7°C° 0 mm 1 mps 752 mmHg 82%
    05:00 +7°C° 0 mm 1 mps 752 mmHg 80%
    06:00 +7°C° 0 mm 1 mps 752 mmHg 79%
    07:00 +7°C° 0 mm 1 mps 752 mmHg 77%
    08:00 +9°C° 0 mm 1 mps 752 mmHg 68%
    09:00 +11°C° 0 mm 1 mps 752 mmHg 59%
    10:00 +13°C° 0 mm 0 mps 752 mmHg 50%
    11:00 +14°C° 0 mm 1 mps 752 mmHg 48%
    12:00 +15°C° 0 mm 2 mps 751 mmHg 46%
    13:00 +16°C° 0 mm 2 mps 751 mmHg 44%
    14:00 +15°C° 0 mm 2 mps 751 mmHg 50%
    15:00 +14°C° 0 mm 3 mps 751 mmHg 56%
    16:00 +13°C° 0 mm 3 mps 751 mmHg 62%
    17:00 +13°C° 0 mm 2 mps 751 mmHg 71%
    18:00 +11°C° 0 mm 1 mps 751 mmHg 80%
    19:00 +8°C° 0 mm 0 mps 751 mmHg 89%
    20:00 +8°C° 0 mm 0 mps 751 mmHg 89%
    21:00 +8°C° 0 mm 0 mps 751 mmHg 88%
    22:00 +9°C° 0 mm 1 mps 751 mmHg 87%
    23:00 +9°C° 0 mm 1 mps 751 mmHg 85%
    Show more